Voltar ao catálogo

DELTA 1 DEB

AtivoPO
NORAD 9313·DEBRIS·🇺🇸 United States

Lançado Jan 22, 1975 de Vandenberg Space Force Base

Loading…

Próximas Passagens (próximas 24 horas)

TLE

AtualizadoSource: Space-Track

Época: Sep 14, 2026, 08:34 UTC

1 09313U 75004EQ  26257.35763569  .00000153  00000-0  58639-4 0  9992
2 09313  97.5410  81.2755 0084376 256.6263 102.5511 14.39543764648537

Acompanhe DELTA 1 DEB em tempo real com AllMySat

Download on the App Store